Location: Monrovia
(34.7865°N, 86.7139°W)
Time: 14:52:01
(UTC+00:00)

SJ-6B - Pass Details

Date: 14 July 2020
Orbit: 509 x 582 km, 97.6° (Epoch: 13 August)

Event Time Altitude Azimuth Distance (km) Brightness Sun altitude
Exits shadow 01:35:13 - 164° (SSE) 2,641 5.8 -6.9°
Reaches altitude 10° 01:37:07 10° 163° (SSE) 1,849 5.1 -7.2°
Maximum altitude 01:41:07 79° 78° (ENE) 586 2.9 -7.9°
Drops below altitude 10° 01:45:14 10° 351° (N) 1,893 6.2 -8.6°
Sets 01:47:24 0° 350° (N) 2,802 7.2 -9.0°
